Showing default

KUIPER-00099, 65138

Orbit data source: Space-Track

KUIPER-00099, 65138 is a payload satellite owned by Kuiper Systems (US) in LEO that was launched on Mon, 11 Aug 2025 UTC via an FALCON 9 launch vehicle from the Air Force Eastern Test Range (AFETR). Payload-class satellites include a variety of spacecraft equipped with specific instruments for various scientific and technological missions. These include communications satellites like Starlink; space stations such as the ISS; scientific satellites like the Hubble; Earth observation satellites from companies like Planet Labs, Umbra, and HawkEye 360; GPS; miniature CubeSats for education and research; and military/defense satellites.

Loading next visibility...
Identifier
65138, 2025-171G
Orbit
LEO
Country
Flag of USUS
Related business
Manufacturer
Kuiper Systems
Mission
Operational Commercial Communications
Bus & Motor
KUIPER, Unknown motor
Mass
~490 kg wet, ~490 kg dry
Launch date (UTC)
2025-08-11 (10 months ago)
Launch vehicle
FALCON 9
Launch site
Air Force Eastern Test Range (AFETR)
Object type
Payload
Rocket body
Debris
Shape & HBR
Box + 2 Pan, 3.4 m
Radar Cross Section
2.326 m², Large (>1 m²)

Expand to show TLE details & history
Last TLE update: 10 hours ago

TLE from 10 hours ago
0 KUIPER-00099
1 65138U 25171G   26171.42945675  .00002991  00000-0  42116-3 0  9996
2 65138  51.9024  58.7782 0000814 105.0468 255.0585 14.79932659 48175
Epoch: 2026-06-20T10:18Z
TLE epoch observation values (Epoch: 2026-06-20T10:18:25.063Z)
Latitude
0.00003°
Longitude
-4.47041°
Altitude
630.431 km
Speed
7.544 km/s
True Right ascension
03h 55m 06s
True Declination
0° 00' 00"
Sunlit
Object was in daylight at epoch
Visualization orbit readout
Latitude
Unknown
Longitude
Unknown
Altitude
Unknown
Speed
Unknown
Apparent Right ascension
Unknown
Apparent Declination
Unknown
Sunlit
N/A
Visualization observer readout
Local Sidereal Time
07:14:20
Azimuth
Unknown
Elevation
Unknown
Doppler factor
Unknown
Orbital elements
Apogee altitude
630.558 km
Perigee altitude
629.417 km
Semi-major axis
7,008.124 km
Eccentricity
0.00008
Inclination
51.9024°
RAAN
58.7782°
Arg. of periapsis
105.0468°
True anomaly
255.04949°
Mean anomaly
255.0585°
Eccentric anomaly
255.05399°
Mean motion
3.69948 °/min
Orbital period
97.31 mins
BSTAR
0.00042116
Loading maneuver chart data...
Computing Atmospheric mass density...
Loading historical data...
Loading historical data...
Loading historical data...
Loading historical data...
Loading historical data...
Loading historical data...
Loading historical data...

Documentation

Showing up to 5 results
|